| time (UTC) | temp C | wind direction | speed KPH | gust KPH | rain 1hr cm | rain 24hr cm | rain mn cm | humidity % | barometer mb |
| 20260505235438 | 17 | 292 | 12.9 | 16.1 | 0.00 | 0.30 | 0.51 | 62 | 1013.4 |
| 20260505234937 | 17 | 307 | 8.0 | 16.1 | 0.00 | 0.30 | 0.51 | 62 | 1013.6 |
| 20260505234435 | 17 | 281 | 4.8 | 24.1 | 0.00 | 0.30 | 0.51 | 59 | 1013.5 |
| 20260505233436 | 17 | 302 | 12.9 | 20.9 | 0.00 | 0.30 | 0.51 | 61 | 1013.5 |
| 20260505232936 | 17 | 265 | 3.2 | 20.9 | 0.00 | 0.30 | 0.51 | 58 | 1013.5 |
| 20260505232435 | 17 | 297 | 9.7 | 20.9 | 0.00 | 0.30 | 0.51 | 57 | 1013.6 |
| 20260505231936 | 17 | 345 | 8.0 | 19.3 | 0.00 | 0.30 | 0.51 | 58 | 1013.5 |
| 20260505231437 | 18 | 272 | 9.7 | 19.3 | 0.00 | 0.30 | 0.51 | 58 | 1013.6 |
| 20260505230936 | 18 | 213 | 9.7 | 22.5 | 0.00 | 0.30 | 0.51 | 60 | 1013.5 |
| 20260505230436 | 18 | 337 | 14.5 | 22.5 | 0.00 | 0.30 | 0.51 | 59 | 1013.6 |
| 20260505225934 | 18 | 318 | 6.4 | 25.7 | 0.00 | 0.30 | 0.51 | 55 | 1013.6 |
| 20260505225436 | 18 | 334 | 9.7 | 25.7 | 0.00 | 0.30 | 0.51 | 60 | 1013.5 |
| 20260505224936 | 18 | 254 | 9.7 | 24.1 | 0.00 | 0.30 | 0.51 | 55 | 1013.6 |
| 20260505224434 | 18 | 267 | 3.2 | 24.1 | 0.00 | 0.30 | 0.51 | 60 | 1013.6 |
| 20260505223935 | 18 | 285 | 9.7 | 20.9 | 0.00 | 0.30 | 0.51 | 57 | 1013.7 |
| 20260505223435 | 17 | 267 | 14.5 | 20.9 | 0.00 | 0.30 | 0.51 | 57 | 1013.9 |
| 20260505222935 | 17 | 318 | 4.8 | 22.5 | 0.00 | 0.30 | 0.51 | 58 | 1013.8 |
| 20260505222435 | 17 | 308 | 6.4 | 22.5 | 0.00 | 0.30 | 0.51 | 63 | 1013.8 |
| 20260505222152 | 17 | 250 | 6.4 | 25.7 | 0.00 | 0.30 | 0.51 | 60 | 1013.9 |
| 20260505221433 | 17 | 26 | 16.1 | 25.7 | 0.00 | 0.30 | 0.51 | 59 | 1013.9 |
| 20260505220934 | 17 | 334 | 8.0 | 29.0 | 0.00 | 0.30 | 0.51 | 57 | 1014.0 |
| 20260505220654 | 17 | 287 | 8.0 | 33.8 | 0.00 | 0.30 | 0.51 | 59 | 1014.0 |
| 20260505215933 | 17 | 326 | 11.3 | 33.8 | 0.00 | 0.30 | 0.51 | 61 | 1014.0 |
| 20260505215434 | 18 | 277 | 4.8 | 25.7 | 0.00 | 0.30 | 0.51 | 63 | 1014.0 |
| 20260505214935 | 18 | 337 | 11.3 | 27.4 | 0.00 | 0.30 | 0.51 | 60 | 1014.0 |
| 20260505214657 | 17 | 289 | 11.3 | 27.4 | 0.00 | 0.30 | 0.51 | 60 | 1014.0 |
| 20260505213933 | 17 | 350 | 6.4 | 29.0 | 0.00 | 0.30 | 0.51 | 58 | 1014.0 |
| 20260505213701 | 17 | 334 | 14.5 | 29.0 | 0.00 | 0.30 | 0.51 | 59 | 1014.0 |
| 20260505212934 | 17 | 340 | 8.0 | 19.3 | 0.00 | 0.30 | 0.51 | 58 | 1014.2 |
| 20260505212435 | 17 | 260 | 1.6 | 22.5 | 0.00 | 0.30 | 0.51 | 55 | 1014.1 |
| 20260505211932 | 17 | 305 | 12.9 | 25.7 | 0.00 | 0.30 | 0.51 | 57 | 1014.2 |
| 20260505211432 | 17 | 319 | 12.9 | 29.0 | 0.00 | 0.30 | 0.51 | 63 | 1014.2 |
| 20260505210933 | 17 | 351 | 14.5 | 29.0 | 0.00 | 0.30 | 0.51 | 64 | 1014.3 |
| 20260505210433 | 17 | 353 | 16.1 | 25.7 | 0.00 | 0.30 | 0.51 | 65 | 1014.3 |
| 20260505205932 | 17 | 11 | 14.5 | 29.0 | 0.00 | 0.30 | 0.51 | 64 | 1014.4 |
| 20260505204934 | 17 | 262 | 8.0 | 24.1 | 0.00 | 0.30 | 0.51 | 66 | 1014.3 |
| 20260505204433 | 17 | 291 | 8.0 | 29.0 | 0.00 | 0.30 | 0.51 | 62 | 1014.3 |
| 20260505204154 | 17 | 298 | 4.8 | 29.0 | 0.00 | 0.30 | 0.51 | 63 | 1014.3 |
| 20260505203431 | 17 | 233 | 6.4 | 29.0 | 0.00 | 0.30 | 0.51 | 64 | 1014.4 |
| 20260505202934 | 17 | 335 | 22.5 | 29.0 | 0.00 | 0.30 | 0.51 | 60 | 1014.4 |
| 20260505201932 | 17 | 260 | 6.4 | 24.1 | 0.00 | 0.30 | 0.51 | 60 | 1014.4 |
| 20260505201431 | 17 | 294 | 19.3 | 24.1 | 0.00 | 0.30 | 0.51 | 59 | 1014.4 |
| 20260505200933 | 17 | 346 | 11.3 | 24.1 | 0.00 | 0.30 | 0.51 | 58 | 1014.5 |
| 20260505200432 | 17 | 306 | 12.9 | 29.0 | 0.00 | 0.30 | 0.51 | 64 | 1014.5 |
| 20260505195932 | 17 | 334 | 17.7 | 29.0 | 0.00 | 0.30 | 0.51 | 66 | 1014.4 |
| 20260505195432 | 17 | 253 | 9.7 | 25.7 | 0.00 | 0.30 | 0.51 | 65 | 1014.6 |
| 20260505194931 | 17 | 320 | 14.5 | 25.7 | 0.00 | 0.30 | 0.51 | 65 | 1014.4 |
| 20260505194432 | 17 | 303 | 12.9 | 25.7 | 0.00 | 0.30 | 0.51 | 66 | 1014.7 |
| 20260505193930 | 17 | 276 | 12.9 | 25.7 | 0.00 | 0.30 | 0.51 | 65 | 1014.6 |
| 20260505193651 | 17 | 348 | 11.3 | 24.1 | 0.00 | 0.30 | 0.51 | 64 | 1014.6 |
| 20260505192930 | 17 | 347 | 16.1 | 24.1 | 0.00 | 0.30 | 0.51 | 64 | 1014.6 |
| 20260505192431 | 17 | 265 | 12.9 | 24.1 | 0.00 | 0.30 | 0.51 | 66 | 1014.7 |
| 20260505191930 | 17 | 264 | 4.8 | 24.1 | 0.00 | 0.30 | 0.51 | 69 | 1014.6 |
| 20260505190930 | 17 | 349 | 6.4 | 27.4 | 0.00 | 0.30 | 0.51 | 66 | 1014.6 |
| 20260505190652 | 17 | 274 | 6.4 | 20.9 | 0.00 | 0.30 | 0.51 | 65 | 1014.7 |
| 20260505190204 | 17 | 337 | 11.3 | 20.9 | 0.00 | 0.30 | 0.51 | 64 | 1014.7 |
| 20260505185431 | 17 | 257 | 8.0 | 22.5 | 0.00 | 0.30 | 0.51 | 64 | 1014.6 |
| 20260505184931 | 17 | 341 | 9.7 | 27.4 | 0.00 | 0.30 | 0.51 | 66 | 1014.6 |
| 20260505184431 | 17 | 332 | 12.9 | 27.4 | 0.00 | 0.30 | 0.51 | 67 | 1014.5 |
| 20260505183931 | 17 | 298 | 11.3 | 19.3 | 0.00 | 0.30 | 0.51 | 66 | 1014.7 |
| 20260505183430 | 17 | 310 | 8.0 | 22.5 | 0.00 | 0.30 | 0.51 | 67 | 1014.6 |
| 20260505183152 | 17 | 291 | 6.4 | 22.5 | 0.00 | 0.30 | 0.51 | 64 | 1014.6 |
| 20260505182658 | 17 | 324 | 9.7 | 19.3 | 0.00 | 0.30 | 0.51 | 66 | 1014.7 |
| 20260505181930 | 17 | 258 | 4.8 | 19.3 | 0.00 | 0.30 | 0.51 | 65 | 1014.5 |
| 20260505181428 | 16 | 272 | 14.5 | 22.5 | 0.00 | 0.30 | 0.51 | 65 | 1014.6 |
| 20260505180931 | 16 | 226 | 8.0 | 25.7 | 0.00 | 0.30 | 0.51 | 64 | 1014.5 |
| 20260505180656 | 16 | 332 | 14.5 | 25.7 | 0.00 | 0.30 | 0.51 | 65 | 1014.4 |
| 20260505175930 | 16 | 263 | 9.7 | 25.7 | 0.00 | 0.30 | 0.51 | 67 | 1014.5 |
| 20260505175429 | 16 | 355 | 12.9 | 25.7 | 0.00 | 0.30 | 0.51 | 71 | 1014.5 |
| 20260505174930 | 16 | 241 | 4.8 | 19.3 | 0.00 | 0.30 | 0.51 | 71 | 1014.4 |
| 20260505174431 | 16 | 233 | 14.5 | 20.9 | 0.00 | 0.30 | 0.51 | 69 | 1014.2 |
| 20260505173929 | 16 | 271 | 11.3 | 27.4 | 0.00 | 0.30 | 0.51 | 69 | 1014.2 |
| 20260505173649 | 16 | 326 | 19.3 | 27.4 | 0.00 | 0.30 | 0.51 | 70 | 1014.1 |
| 20260505172930 | 16 | 305 | 9.7 | 25.7 | 0.00 | 0.30 | 0.51 | 68 | 1014.1 |
| 20260505172429 | 16 | 349 | 11.3 | 25.7 | 0.00 | 0.30 | 0.51 | 71 | 1014.1 |
| 20260505172148 | 15 | 339 | 17.7 | 24.1 | 0.00 | 0.30 | 0.51 | 73 | 1014.1 |
| 20260505171429 | 15 | 279 | 3.2 | 22.5 | 0.00 | 0.30 | 0.51 | 75 | 1014.0 |
| 20260505170928 | 15 | 280 | 14.5 | 25.7 | 0.00 | 0.30 | 0.51 | 71 | 1014.0 |
| 20260505170429 | 15 | 333 | 8.0 | 25.7 | 0.00 | 0.30 | 0.51 | 74 | 1014.0 |
| 20260505170146 | 15 | 337 | 9.7 | 22.5 | 0.00 | 0.30 | 0.51 | 71 | 1014.0 |
| 20260505165427 | 15 | 281 | 9.7 | 25.7 | 0.00 | 0.30 | 0.51 | 73 | 1014.0 |
| 20260505164926 | 15 | 276 | 11.3 | 25.7 | 0.00 | 0.30 | 0.51 | 75 | 1013.9 |
| 20260505164427 | 15 | 319 | 11.3 | 22.5 | 0.00 | 0.30 | 0.51 | 74 | 1013.8 |
| 20260505163931 | 15 | 283 | 11.3 | 24.1 | 0.00 | 0.30 | 0.51 | 75 | 1013.7 |
| 20260505163427 | 15 | 310 | 8.0 | 24.1 | 0.00 | 0.30 | 0.51 | 78 | 1013.7 |
| 20260505162928 | 15 | 344 | 17.7 | 24.1 | 0.00 | 0.30 | 0.51 | 76 | 1013.6 |
| 20260505162427 | 15 | 348 | 3.2 | 16.1 | 0.00 | 0.30 | 0.51 | 78 | 1013.6 |
| 20260505161427 | 15 | 324 | 8.0 | 11.3 | 0.00 | 0.30 | 0.51 | 80 | 1013.5 |
| 20260505160926 | 15 | 332 | 1.6 | 9.7 | 0.00 | 0.30 | 0.51 | 83 | 1013.4 |
| 20260505160426 | 15 | 226 | 1.6 | 9.7 | 0.00 | 0.30 | 0.51 | 80 | 1013.5 |
| 20260505153152 | 13 | 333 | 4.8 | 8.0 | 0.00 | 0.30 | 0.51 | 87 | 1013.2 |
| 20260505152653 | 13 | 259 | 0.0 | 1.6 | 0.00 | 0.30 | 0.51 | 89 | 1013.3 |
| 20260505151927 | 13 | 285 | 0.0 | 3.2 | 0.00 | 0.30 | 0.51 | 90 | 1013.3 |
| 20260505151425 | 13 | 263 | 0.0 | 3.2 | 0.00 | 0.30 | 0.51 | 90 | 1013.3 |
| 20260505150926 | 12 | 305 | 0.0 | 3.2 | 0.00 | 0.30 | 0.51 | 90 | 1013.3 |
| 20260505150425 | 12 | 275 | 0.0 | 3.2 | 0.03 | 0.30 | 0.51 | 90 | 1013.2 |
| 20260505140422 | 12 | 255 | 0.0 | 11.3 | 0.18 | 0.28 | 0.48 | 94 | 1012.8 |
| 20260505140147 | 12 | 259 | 6.4 | 14.5 | 0.15 | 0.25 | 0.46 | 94 | 1012.9 |
| 20260505124923 | 13 | 341 | 8.0 | 12.9 | 0.03 | 0.10 | 0.30 | 92 | 1012.2 |
| 20260505124651 | 13 | 333 | 8.0 | 16.1 | 0.03 | 0.10 | 0.30 | 92 | 1012.1 |
| 20260505123922 | 13 | 330 | 9.7 | 16.1 | 0.03 | 0.10 | 0.30 | 92 | 1012.2 |
| 20260505123423 | 13 | 340 | 9.7 | 12.9 | 0.03 | 0.10 | 0.30 | 92 | 1012.2 |
| 20260505122924 | 13 | 305 | 8.0 | 12.9 | 0.03 | 0.10 | 0.30 | 92 | 1012.1 |
| 20260505122423 | 13 | 25 | 8.0 | 12.9 | 0.08 | 0.10 | 0.30 | 92 | 1012.1 |
| 20260505121921 | 13 | 339 | 8.0 | 14.5 | 0.10 | 0.10 | 0.30 | 92 | 1012.1 |
| 20260505121422 | 13 | 344 | 6.4 | 14.5 | 0.10 | 0.10 | 0.30 | 92 | 1012.2 |
| 20260505120922 | 13 | 330 | 3.2 | 8.0 | 0.10 | 0.10 | 0.30 | 93 | 1012.1 |
| 20260505120421 | 13 | 275 | 3.2 | 9.7 | 0.10 | 0.10 | 0.30 | 93 | 1012.1 |
| 20260505120143 | 13 | 230 | 3.2 | 9.7 | 0.08 | 0.08 | 0.28 | 93 | 1012.1 |
| 20260505115646 | 13 | 227 | 1.6 | 4.8 | 0.08 | 0.08 | 0.28 | 94 | 1012.0 |
| 20260505114921 | 13 | 226 | 1.6 | 4.8 | 0.08 | 0.08 | 0.28 | 94 | 1012.0 |
| 20260505114420 | 13 | 235 | 0.0 | 0.0 | 0.08 | 0.08 | 0.28 | 94 | 1012.0 |
| 20260505113921 | 13 | 245 | 0.0 | 1.6 | 0.08 | 0.08 | 0.28 | 94 | 1012.0 |
| 20260505113421 | 13 | 245 | 0.0 | 4.8 | 0.08 | 0.08 | 0.28 | 94 | 1012.0 |
| 20260505113143 | 13 | 239 | 1.6 | 9.7 | 0.08 | 0.08 | 0.28 | 94 | 1012.1 |
| 20260505111920 | 13 | 253 | 3.2 | 3.2 | 0.00 | 0.00 | 0.20 | 92 | 1012.0 |
| 20260505111422 | 13 | 242 | 0.0 | 3.2 | 0.00 | 0.00 | 0.20 | 92 | 1012.0 |
| 20260505110925 | 13 | 248 | 0.0 | 3.2 | 0.00 | 0.00 | 0.20 | 93 | 1012.0 |
| 20260505110420 | 13 | 239 | 0.0 | 3.2 | 0.00 | 0.00 | 0.20 | 93 | 1012.0 |
| 20260505101419 | 13 | 224 | 4.8 | 8.0 | 0.00 | 0.00 | 0.20 | 94 | 1012.2 |
| 20260505100919 | 13 | 249 | 1.6 | 8.0 | 0.00 | 0.00 | 0.20 | 95 | 1012.1 |
| 20260505100416 | 13 | 240 | 0.0 | 0.0 | 0.00 | 0.00 | 0.20 | 95 | 1012.2 |
| 20260505100033 | 13 | 232 | 3.2 | 9.7 | 0.00 | 0.20 | 0.20 | 95 | 1012.1 |
| 20260505095533 | 13 | 262 | 1.6 | 9.7 | 0.00 | 0.20 | 0.20 | 95 | 1012.2 |
| 20260505095035 | 13 | 229 | 4.8 | 8.0 | 0.00 | 0.20 | 0.20 | 95 | 1012.3 |
| 20260505094534 | 13 | 258 | 0.0 | 8.0 | 0.00 | 0.20 | 0.20 | 95 | 1012.3 |
| 20260505094032 | 13 | 228 | 1.6 | 9.7 | 0.00 | 0.20 | 0.20 | 95 | 1012.3 |
| 20260505093532 | 13 | 260 | 4.8 | 9.7 | 0.00 | 0.20 | 0.20 | 95 | 1012.3 |
| 20260505093033 | 13 | 237 | 4.8 | 4.8 | 0.00 | 0.20 | 0.20 | 95 | 1012.4 |
| 20260505092534 | 13 | 236 | 1.6 | 4.8 | 0.03 | 0.20 | 0.20 | 95 | 1012.5 |
| 20260505092032 | 12 | 250 | 0.0 | 3.2 | 0.05 | 0.20 | 0.20 | 95 | 1012.5 |
| 20260505091532 | 12 | 253 | 0.0 | 3.2 | 0.08 | 0.20 | 0.20 | 95 | 1012.5 |
| 20260505091033 | 12 | 227 | 3.2 | 3.2 | 0.13 | 0.20 | 0.20 | 95 | 1012.5 |
| 20260505090533 | 12 | 249 | 0.0 | 1.6 | 0.18 | 0.20 | 0.20 | 95 | 1012.6 |
| 20260505090032 | 12 | 256 | 0.0 | 4.8 | 0.20 | 0.20 | 0.20 | 95 | 1012.6 |
| 20260505085759 | 12 | 250 | 0.0 | 9.7 | 0.20 | 0.20 | 0.20 | 94 | 1012.6 |
| 20260505085032 | 12 | 247 | 0.0 | 9.7 | 0.20 | 0.20 | 0.20 | 94 | 1012.8 |
| 20260505084533 | 12 | 212 | 6.4 | 8.0 | 0.20 | 0.20 | 0.20 | 94 | 1012.7 |
| 20260505084031 | 12 | 233 | 1.6 | 8.0 | 0.20 | 0.20 | 0.20 | 95 | 1012.6 |
| 20260505083531 | 12 | 232 | 1.6 | 4.8 | 0.20 | 0.20 | 0.20 | 95 | 1012.8 |
| 20260505083031 | 12 | 241 | 3.2 | 9.7 | 0.20 | 0.20 | 0.20 | 95 | 1012.8 |
| 20260505082532 | 12 | 258 | 1.6 | 16.1 | 0.18 | 0.18 | 0.18 | 95 | 1012.9 |
| 20260505082031 | 13 | 222 | 4.8 | 19.3 | 0.15 | 0.15 | 0.15 | 94 | 1013.0 |
| 20260505081801 | 13 | 231 | 4.8 | 19.3 | 0.13 | 0.13 | 0.13 | 94 | 1013.1 |
| 20260505081030 | 13 | 217 | 4.8 | 19.3 | 0.08 | 0.08 | 0.08 | 94 | 1013.1 |
| 20260505080531 | 14 | 234 | 4.8 | 19.3 | 0.03 | 0.03 | 0.03 | 93 | 1013.1 |
| 20260505080031 | 14 | 280 | 12.9 | 25.7 | 0.00 | 0.00 | 0.00 | 93 | 1013.0 |
| 20260505075531 | 14 | 261 | 14.5 | 25.7 | 0.00 | 0.00 | 0.00 | 92 | 1013.1 |
| 20260505075030 | 15 | 242 | 12.9 | 24.1 | 0.00 | 0.00 | 0.00 | 89 | 1013.1 |
| 20260505074532 | 15 | 220 | 3.2 | 9.7 | 0.00 | 0.00 | 0.00 | 87 | 1013.1 |
| 20260505074030 | 15 | 231 | 4.8 | 9.7 | 0.00 | 0.00 | 0.00 | 86 | 1013.1 |
| 20260505073530 | 15 | 243 | 1.6 | 11.3 | 0.00 | 0.00 | 0.00 | 87 | 1013.1 |
| 20260505073029 | 15 | 219 | 4.8 | 11.3 | 0.00 | 0.00 | 0.00 | 85 | 1013.2 |
| 20260505072531 | 15 | 242 | 8.0 | 9.7 | 0.00 | 0.00 | 0.00 | 85 | 1013.2 |
| 20260505072032 | 15 | 254 | 1.6 | 9.7 | 0.00 | 0.00 | 0.00 | 85 | 1013.2 |
| 20260505071529 | 15 | 257 | 1.6 | 8.0 | 0.00 | 0.00 | 0.00 | 86 | 1013.2 |
| 20260505071253 | 15 | 268 | 3.2 | 8.0 | 0.00 | 0.00 | 0.00 | 86 | 1013.2 |
| 20260505070031 | 15 | 250 | 1.6 | 8.0 | 0.00 | 0.00 | 0.00 | 86 | 1013.2 |
| 20260505065749 | 15 | 258 | 1.6 | 8.0 | 0.00 | 0.00 | 0.00 | 86 | 1013.2 |
| 20260505065304 | 15 | 266 | 3.2 | 8.0 | 0.00 | 0.00 | 0.00 | 86 | 1013.2 |
| 20260505064530 | 15 | 263 | 3.2 | 9.7 | 0.00 | 0.00 | 0.00 | 87 | 1013.3 |
| 20260505064252 | 15 | 267 | 6.4 | 9.7 | 0.00 | 0.00 | 0.00 | 87 | 1013.4 |
| 20260505063528 | 15 | 284 | 6.4 | 9.7 | 0.00 | 0.00 | 0.00 | 87 | 1013.3 |
| 20260505063029 | 15 | 278 | 3.2 | 14.5 | 0.00 | 0.00 | 0.00 | 87 | 1013.3 |
| 20260505062530 | 15 | 296 | 4.8 | 14.5 | 0.00 | 0.00 | 0.00 | 87 | 1013.3 |
| 20260505062030 | 15 | 279 | 3.2 | 14.5 | 0.00 | 0.00 | 0.00 | 86 | 1013.4 |
| 20260505061528 | 15 | 261 | 3.2 | 12.9 | 0.00 | 0.00 | 0.00 | 85 | 1013.5 |
| 20260505061031 | 16 | 287 | 1.6 | 12.9 | 0.00 | 0.00 | 0.00 | 83 | 1013.4 |
| 20260505060543 | 16 | 222 | 4.8 | 8.0 | 0.00 | 0.00 | 0.00 | 75 | 1013.4 |
| 20260505060031 | 16 | 217 | 3.2 | 8.0 | 0.00 | 0.00 | 0.00 | 74 | 1013.5 |
| 20260505055755 | 16 | 252 | 1.6 | 4.8 | 0.00 | 0.00 | 0.00 | 74 | 1013.5 |
| 20260505055028 | 16 | 254 | 0.0 | 8.0 | 0.00 | 0.00 | 0.00 | 74 | 1013.5 |
| 20260505054529 | 16 | 242 | 4.8 | 8.0 | 0.00 | 0.00 | 0.00 | 74 | 1013.6 |
| 20260505054029 | 16 | 250 | 1.6 | 8.0 | 0.00 | 0.00 | 0.00 | 73 | 1013.7 |
| 20260505053529 | 16 | 260 | 1.6 | 11.3 | 0.00 | 0.00 | 0.00 | 73 | 1013.7 |
| 20260505053028 | 16 | 229 | 4.8 | 11.3 | 0.00 | 0.00 | 0.00 | 73 | 1013.7 |
| 20260505052527 | 16 | 243 | 4.8 | 11.3 | 0.00 | 0.00 | 0.00 | 73 | 1013.8 |
| 20260505052030 | 16 | 229 | 6.4 | 11.3 | 0.00 | 0.00 | 0.00 | 73 | 1013.8 |
| 20260505051747 | 16 | 224 | 3.2 | 9.7 | 0.00 | 0.00 | 0.00 | 73 | 1013.9 |
| 20260505051026 | 16 | 225 | 6.4 | 9.7 | 0.00 | 0.00 | 0.00 | 73 | 1013.8 |
| 20260505050526 | 16 | 233 | 4.8 | 9.7 | 0.00 | 0.00 | 0.00 | 73 | 1013.9 |
| 20260505041539 | 16 | 217 | 9.7 | 12.9 | 0.00 | 0.00 | 0.00 | 71 | 1014.1 |
| 20260505041028 | 16 | 223 | 4.8 | 12.9 | 0.00 | 0.00 | 0.00 | 72 | 1014.0 |
| 20260505040526 | 16 | 223 | 3.2 | 12.9 | 0.00 | 0.00 | 0.00 | 72 | 1014.0 |
| 20260505040028 | 16 | 210 | 8.0 | 12.9 | 0.00 | 0.00 | 0.00 | 72 | 1014.0 |
| 20260505035527 | 16 | 219 | 4.8 | 11.3 | 0.00 | 0.00 | 0.00 | 72 | 1013.9 |
| 20260505035025 | 16 | 251 | 4.8 | 12.9 | 0.00 | 0.00 | 0.00 | 72 | 1014.0 |
| 20260505034525 | 16 | 262 | 6.4 | 12.9 | 0.00 | 0.00 | 0.00 | 72 | 1013.9 |
| 20260505034027 | 16 | 245 | 8.0 | 12.9 | 0.00 | 0.00 | 0.00 | 71 | 1013.8 |
| 20260505033746 | 16 | 248 | 8.0 | 12.9 | 0.00 | 0.00 | 0.00 | 71 | 1013.8 |
| 20260505033024 | 16 | 262 | 3.2 | 11.3 | 0.00 | 0.00 | 0.00 | 70 | 1013.7 |
| 20260505032539 | 16 | 256 | 3.2 | 12.9 | 0.00 | 0.00 | 0.00 | 70 | 1013.7 |
| 20260505032025 | 16 | 232 | 9.7 | 12.9 | 0.00 | 0.00 | 0.00 | 70 | 1013.7 |
| 20260505031525 | 16 | 224 | 6.4 | 11.3 | 0.00 | 0.00 | 0.00 | 71 | 1013.7 |
| 20260505031028 | 16 | 205 | 6.4 | 9.7 | 0.00 | 0.00 | 0.00 | 72 | 1013.5 |
| 20260505030525 | 16 | 231 | 1.6 | 9.7 | 0.00 | 0.00 | 0.00 | 72 | 1013.5 |
| 20260505030024 | 16 | 254 | 1.6 | 11.3 | 0.00 | 0.00 | 0.00 | 71 | 1013.6 |
| 20260505025525 | 16 | 259 | 6.4 | 11.3 | 0.00 | 0.00 | 0.00 | 72 | 1013.6 |
| 20260505025024 | 15 | 238 | 4.8 | 11.3 | 0.00 | 0.00 | 0.00 | 72 | 1013.5 |
| 20260505024524 | 15 | 251 | 3.2 | 11.3 | 0.00 | 0.00 | 0.00 | 73 | 1013.4 |
| 20260505024244 | 16 | 242 | 1.6 | 11.3 | 0.00 | 0.00 | 0.00 | 73 | 1013.3 |
| 20260505023745 | 16 | 254 | 1.6 | 12.9 | 0.00 | 0.00 | 0.00 | 73 | 1013.3 |
| 20260505023247 | 16 | 256 | 3.2 | 12.9 | 0.00 | 0.00 | 0.00 | 73 | 1013.4 |
| 20260505022524 | 16 | 294 | 8.0 | 12.9 | 0.00 | 0.00 | 0.00 | 73 | 1013.4 |
| 20260505022023 | 16 | 258 | 3.2 | 12.9 | 0.00 | 0.00 | 0.00 | 73 | 1013.4 |
| 20260505021524 | 16 | 307 | 4.8 | 12.9 | 0.00 | 0.00 | 0.00 | 73 | 1013.4 |
| 20260505021025 | 16 | 271 | 4.8 | 20.9 | 0.00 | 0.00 | 0.00 | 72 | 1013.5 |
| 20260505020523 | 17 | 229 | 8.0 | 20.9 | 0.00 | 0.00 | 0.00 | 73 | 1013.4 |
| 20260505020242 | 17 | 248 | 6.4 | 16.1 | 0.00 | 0.00 | 0.00 | 72 | 1013.5 |
| 20260505015524 | 17 | 289 | 12.9 | 16.1 | 0.00 | 0.00 | 0.00 | 68 | 1013.5 |
| 20260505015026 | 17 | 272 | 8.0 | 14.5 | 0.00 | 0.00 | 0.00 | 68 | 1013.6 |
| 20260505014523 | 17 | 333 | 6.4 | 12.9 | 0.00 | 0.00 | 0.00 | 68 | 1013.4 |
| 20260505013524 | 16 | 246 | 4.8 | 16.1 | 0.00 | 0.00 | 0.00 | 67 | 1013.4 |
| 20260505013246 | 16 | 345 | 8.0 | 19.3 | 0.00 | 0.00 | 0.00 | 71 | 1013.5 |
| 20260505012524 | 17 | 329 | 8.0 | 19.3 | 0.00 | 0.00 | 0.00 | 72 | 1013.7 |
| 20260505012246 | 17 | 266 | 9.7 | 16.1 | 0.00 | 0.00 | 0.00 | 70 | 1013.8 |
| 20260505011523 | 17 | 263 | 4.8 | 20.9 | 0.00 | 0.00 | 0.00 | 70 | 1013.7 |
| 20260505011252 | 17 | 262 | 8.0 | 24.1 | 0.00 | 0.00 | 0.00 | 68 | 1013.6 |
| 20260505010522 | 17 | 265 | 4.8 | 24.1 | 0.00 | 0.00 | 0.00 | 68 | 1013.7 |
| 20260505010244 | 18 | 299 | 6.4 | 16.1 | 0.00 | 0.00 | 0.00 | 68 | 1013.7 |
| 20260505005745 | 17 | 10 | 6.4 | 16.1 | 0.00 | 0.00 | 0.00 | 67 | 1013.6 |
| 20260505005022 | 17 | 299 | 6.4 | 20.9 | 0.00 | 0.00 | 0.00 | 67 | 1013.7 |
| 20260505004521 | 17 | 340 | 4.8 | 20.9 | 0.00 | 0.00 | 0.00 | 66 | 1013.8 |
| 20260505004021 | 18 | 266 | 8.0 | 16.1 | 0.00 | 0.00 | 0.00 | 67 | 1013.8 |
| 20260505003523 | 18 | 308 | 4.8 | 14.5 | 0.00 | 0.00 | 0.00 | 67 | 1013.8 |
| 20260505003023 | 18 | 7 | 8.0 | 14.5 | 0.00 | 0.00 | 0.00 | 67 | 1013.8 |
| 20260505002520 | 18 | 0 | 8.0 | 16.1 | 0.00 | 0.00 | 0.00 | 67 | 1013.8 |
| 20260505002021 | 18 | 355 | 8.0 | 16.1 | 0.00 | 0.00 | 0.00 | 64 | 1013.9 |
| 20260505001750 | 18 | 293 | 8.0 | 19.3 | 0.00 | 0.00 | 0.00 | 64 | 1013.9 |
| 20260505000520 | 18 | 275 | 4.8 | 14.5 | 0.00 | 0.00 | 0.00 | 62 | 1013.9 |
| 20260505000022 | 18 | 230 | 1.6 | 14.5 | 0.00 | 0.00 | 0.00 | 63 | 1014.0 |